Total_Precipitation_Accumulation
2.21 2.29 2.34 2.41 2.29 2.13 2.10 2.20 2.33 2.12 1.95 1.74 1.54 1.35 1.43 1.43 1.51 1.33 1.26 1.19 1.06 0.99 0.96 0.87 0.81 0.87 1.12 1.50 1.64 1.57 1.65 1.88 2.25 2.58 2.43 2.31 2.22 2.18
2.00 2.07 2.12 2.17 2.18 2.17 2.15 2.16 2.15 2.09 1.98 1.77 1.49 1.22 1.28 1.35 1.51 1.30 1.33 1.41 1.19 1.04 0.92 0.92 0.89 0.84 0.89 1.04 1.14 1.05 0.99 1.07 1.36 1.99 2.24 2.21 2.24 2.31
1.76 1.78 1.90 1.97 2.15 2.20 2.18 2.14 2.12 2.03 1.88 1.78 1.52 1.31 1.29 1.36 1.43 1.35 1.37 1.37 1.21 1.13 1.03 0.98 0.89 0.92 0.96 0.99 1.07 0.99 0.84 0.79 0.84 1.06 1.38 1.58 1.77 2.03
1.54 1.55 1.67 1.74 1.89 2.01 2.11 2.03 2.03 1.99 1.98 1.91 1.68 1.47 1.40 1.40 1.46 1.42 1.30 1.28 1.27 1.28 1.17 1.10 1.01 0.93 0.98 0.97 1.07 1.13 1.03 0.87 0.80 0.81 0.93 1.10 1.30 1.50
1.31 1.36 1.42 1.50 1.63 1.75 1.85 1.94 1.95 1.88 1.98 1.95 1.74 1.54 1.41 1.35 1.39 1.36 1.31 1.37 1.27 1.31 1.27 1.17 1.13 1.05 1.05 1.04 1.03 1.11 1.11 1.03 0.87 0.84 0.90 0.98 1.07 1.18
1.07 1.06 1.09 1.13 1.26 1.40 1.51 1.66 1.82 1.94 2.02 2.03 1.88 1.62 1.43 1.37 1.43 1.47 1.47 1.40 1.41 1.31 1.34 1.31 1.30 1.25 1.17 1.16 1.05 1.03 1.11 1.11 0.96 0.88 0.86 0.90 0.92 0.93
1.07 0.96 0.89 0.89 0.99 1.08 1.18 1.44 1.65 1.81 1.95 2.02 1.93 1.75 1.57 1.47 1.42 1.41 1.50 1.60 1.60 1.45 1.41 1.34 1.29 1.15 1.04 1.06 1.05 0.99 0.97 0.98 0.92 0.84 0.77 0.70 0.72 0.77
1.02 1.01 0.99 0.95 0.83 0.79 0.85 1.02 1.27 1.49 1.67 1.80 1.84 1.69 1.51 1.47 1.51 1.51 1.51 1.58 1.63 1.48 1.44 1.51 1.45 1.30 1.15 1.04 1.10 1.03 0.96 0.95 0.96 0.94 0.87 0.80 0.77 0.77
0.98 0.97 1.01 0.99 1.03 0.92 0.87 0.85 0.88 1.06 1.32 1.53 1.57 1.53 1.58 1.51 1.46 1.42 1.40 1.40 1.41 1.42 1.44 1.48 1.47 1.35 1.17 1.11 1.21 1.14 1.07 1.01 0.99 1.02 1.01 0.94 0.86 0.79
1.05 1.05 1.10 1.12 1.07 1.19 1.16 1.05 0.98 0.97 1.07 1.03 1.13 1.42 1.54 1.56 1.54 1.55 1.58 1.48 1.40 1.38 1.34 1.38 1.32 1.26 1.15 1.08 1.14 1.08 1.02 0.97 0.96 0.97 1.02 1.05 1.04 0.99
1.06 1.04 1.09 1.10 1.30 1.34 1.23 1.19 1.11 1.05 1.20 1.22 1.24 1.31 1.39 1.40 1.39 1.47 1.53 1.48 1.42 1.34 1.27 1.19 1.14 1.22 1.27 1.17 1.14 1.20 1.14 1.05 0.99 1.01 1.04 1.06 1.12 1.13
1.14 1.07 1.22 1.18 1.19 1.14 1.09 1.26 1.21 1.10 1.01 0.98 0.99 1.05 1.08 1.14 1.21 1.24 1.38 1.42 1.35 1.35 1.23 1.18 1.13 1.20 1.27 1.19 1.07 1.05 1.10 1.14 1.09 1.05 1.09 1.11 1.14 1.08
1.11 1.10 1.06 1.15 0.98 0.94 0.99 1.12 1.26 1.21 1.15 1.16 1.08 1.03 1.01 1.01 0.97 1.03 1.18 1.28 1.31 1.30 1.17 1.14 1.17 1.20 1.14 1.05 1.04 0.95 0.87 0.90 0.90 0.89 0.92 0.99 1.06 1.02
0.96 0.87 0.86 0.95 0.81 0.76 0.75 0.88 1.07 1.10 1.08 1.13 1.10 1.02 0.97 0.94 0.92 0.93 1.01 1.10 1.13 1.16 1.18 1.15 1.16 1.17 1.15 0.99 0.92 0.91 0.87 0.83 0.82 0.81 0.77 0.91 0.96 1.01
0.79 0.79 0.72 0.69 0.67 0.62 0.66 0.76 0.83 0.96 1.08 1.10 1.00 0.92 0.92 0.95 0.96 0.95 0.92 0.96 1.00 1.00 1.00 0.99 1.05 1.13 1.18 1.07 0.93 0.88 0.90 0.91 0.86 0.85 0.85 0.82 0.80 0.85
0.59 0.53 0.51 0.54 0.59 0.59 0.60 0.61 0.67 0.89 1.07 1.05 0.95 0.89 0.90 0.95 1.02 1.05 1.03 0.97 0.98 0.99 0.97 0.97 0.99 1.04 1.04 0.97 0.96 0.92 0.91 0.92 0.90 0.94 0.97 0.93 0.85 0.79
0.74 0.63 0.57 0.56 0.57 0.59 0.61 0.64 0.75 0.87 0.98 0.93 0.93 0.90 0.90 0.97 1.02 1.07 1.15 1.12 1.05 0.99 1.03 1.09 1.14 1.16 1.11 1.07 1.04 0.97 0.98 0.96 0.95 1.00 1.03 1.02 0.95 0.87
0.77 0.74 0.73 0.72 0.70 0.69 0.67 0.65 0.66 0.74 0.82 0.89 0.90 0.90 0.90 0.91 0.93 0.97 1.05 1.10 1.08 1.02 0.97 1.01 1.13 1.26 1.28 1.18 1.04 0.98 1.03 1.04 1.05 1.08 1.07 1.03 0.93 0.90
0.70 0.69 0.69 0.67 0.66 0.65 0.63 0.62 0.61 0.62 0.69 0.79 0.89 0.96 0.98 0.98 0.97 0.95 0.94 0.96 0.94 0.93 0.91 0.91 0.99 1.12 1.22 1.14 0.98 0.85 0.91 1.00 1.06 1.05 1.03 0.98 0.88 0.83
0.55 0.60 0.61 0.60 0.59 0.59 0.56 0.54 0.54 0.56 0.60 0.66 0.75 0.87 1.02 1.11 1.12 1.09 1.05 1.04 1.01 0.95 0.93 0.91 0.90 0.96 1.06 1.05 0.94 0.81 0.81 0.91 0.99 0.97 0.91 0.90 0.87 0.92
0.37 0.43 0.46 0.46 0.47 0.48 0.50 0.52 0.53 0.54 0.56 0.60 0.64 0.69 0.81 0.97 1.07 1.12 1.19 1.28 1.25 1.16 1.11 1.06 1.03 1.10 1.07 1.08 1.00 0.77 0.71 0.78 0.85 0.86 0.87 0.92 0.90 0.85
0.38 0.39 0.41 0.42 0.44 0.47 0.49 0.50 0.51 0.52 0.54 0.57 0.59 0.64 0.73 0.83 0.93 1.02 1.08 1.16 1.22 1.23 1.21 1.17 1.15 1.18 1.17 1.19 1.08 0.88 0.79 0.78 0.81 0.89 0.93 0.99 0.98 0.91
0.37 0.38 0.39 0.41 0.42 0.46 0.56 0.60 0.57 0.54 0.55 0.60 0.67 0.71 0.75 0.80 0.84 0.92 0.98 1.05 1.11 1.11 1.11 1.12 1.10 1.08 1.08 1.08 1.09 1.04 0.93 0.85 0.83 0.83 0.79 0.90 0.94 0.87